Time,TemperatureF,DewpointF,PressureIn,WindDirection,WindDirectionDegrees,WindSpeedMPH,WindSpeedGustMPH,Humidity,HourlyPrecipIn,Conditions,Clouds,dailyrainin,SolarRadiationWatts/m^2,SoftwareType,DateUTC
2013-01-23 00:22:00,16.0,-7.0,-100.00,East,100,2.0,4.0,35,0.00,,,0.00,0.000000,,2013-01-23 07:22:00,
2013-01-23 00:33:00,16.0,-7.0,-100.00,East,100,2.0,4.0,35,0.00,,,0.00,0.000000,,2013-01-23 07:33:00,
2013-01-23 00:42:00,16.0,-7.0,-100.00,East,100,2.0,4.0,35,0.00,,,0.00,0.000000,,2013-01-23 07:42:00,
2013-01-23 00:52:00,16.0,-7.0,-100.00,East,100,2.0,4.0,35,0.00,,,0.00,0.000000,,2013-01-23 07:52:00,
2013-01-23 01:22:00,16.0,-5.0,-100.00,ESE,119,2.0,4.0,39,0.00,,,0.00,0.000000,,2013-01-23 08:22:00,
2013-01-23 01:33:00,16.0,-5.0,-100.00,ESE,119,2.0,4.0,39,0.00,,,0.00,0.000000,,2013-01-23 08:33:00,
2013-01-23 01:42:00,16.0,-5.0,-100.00,ESE,119,2.0,4.0,39,0.00,,,0.00,0.000000,,2013-01-23 08:42:00,
2013-01-23 01:52:00,16.0,-5.0,-100.00,ESE,119,2.0,4.0,39,0.00,,,0.00,0.000000,,2013-01-23 08:52:00,
2013-01-23 02:22:00,16.0,-7.0,-100.00,ESE,109,2.0,5.0,35,0.00,,,0.00,0.000000,,2013-01-23 09:22:00,
2013-01-23 02:32:00,16.0,-7.0,-100.00,ESE,109,2.0,5.0,35,0.00,,,0.00,0.000000,,2013-01-23 09:32:00,
2013-01-23 02:43:00,16.0,-7.0,-100.00,ESE,109,2.0,5.0,35,0.00,,,0.00,0.000000,,2013-01-23 09:43:00,
2013-01-23 02:52:00,16.0,-7.0,-100.00,ESE,109,2.0,5.0,35,0.00,,,0.00,0.000000,,2013-01-23 09:52:00,
2013-01-23 03:23:00,17.0,-6.0,-100.00,East,83,2.0,4.0,35,0.00,,,0.00,0.000000,,2013-01-23 10:23:00,
2013-01-23 03:33:00,17.0,-6.0,-100.00,East,83,2.0,4.0,35,0.00,,,0.00,0.000000,,2013-01-23 10:33:00,
2013-01-23 03:43:00,17.0,-6.0,-100.00,East,83,2.0,4.0,35,0.00,,,0.00,0.000000,,2013-01-23 10:43:00,
2013-01-23 03:52:00,17.0,-6.0,-100.00,East,83,2.0,4.0,35,0.00,,,0.00,0.000000,,2013-01-23 10:52:00,
2013-01-23 04:23:00,16.0,-8.0,-100.00,East,91,3.0,5.0,33,0.00,,,0.00,0.000000,,2013-01-23 11:23:00,
2013-01-23 04:33:00,16.0,-8.0,-100.00,East,91,3.0,5.0,33,0.00,,,0.00,0.000000,,2013-01-23 11:33:00,
2013-01-23 04:43:00,16.0,-8.0,-100.00,East,91,3.0,5.0,33,0.00,,,0.00,0.000000,,2013-01-23 11:43:00,
2013-01-23 04:53:00,16.0,-8.0,-100.00,East,91,3.0,5.0,33,0.00,,,0.00,0.000000,,2013-01-23 11:53:00,
2013-01-23 05:22:00,18.0,-6.0,-100.00,ESE,118,4.0,7.0,33,0.00,,,0.00,0.000000,,2013-01-23 12:22:00,
2013-01-23 05:33:00,18.0,-6.0,-100.00,ESE,118,4.0,7.0,33,0.00,,,0.00,0.000000,,2013-01-23 12:33:00,
2013-01-23 05:43:00,18.0,-6.0,-100.00,ESE,118,4.0,7.0,33,0.00,,,0.00,0.000000,,2013-01-23 12:43:00,
2013-01-23 05:52:00,18.0,-6.0,-100.00,ESE,118,4.0,7.0,33,0.00,,,0.00,0.000000,,2013-01-23 12:52:00,
2013-01-23 06:23:00,17.0,-10.0,-100.00,East,100,4.0,8.0,28,0.00,,,0.00,0.000000,,2013-01-23 13:23:00,
2013-01-23 06:33:00,17.0,-10.0,-100.00,East,100,4.0,8.0,28,0.00,,,0.00,0.000000,,2013-01-23 13:33:00,
2013-01-23 06:42:00,17.0,-10.0,-100.00,East,100,4.0,8.0,28,0.00,,,0.00,0.000000,,2013-01-23 13:42:00,
2013-01-23 06:52:00,17.0,-10.0,-100.00,East,100,4.0,8.0,28,0.00,,,0.00,0.000000,,2013-01-23 13:52:00,
2013-01-23 07:23:00,19.0,-9.0,-100.00,SE,132,2.0,8.0,28,0.00,,,0.00,0.000000,,2013-01-23 14:23:00,
2013-01-23 07:33:00,19.0,-9.0,-100.00,SE,132,2.0,8.0,28,0.00,,,0.00,0.000000,,2013-01-23 14:33:00,
2013-01-23 07:43:00,19.0,-9.0,-100.00,SE,132,2.0,8.0,28,0.00,,,0.00,0.000000,,2013-01-23 14:43:00,
2013-01-23 07:53:00,19.0,-9.0,-100.00,SE,132,2.0,8.0,28,0.00,,,0.00,0.000000,,2013-01-23 14:53:00,
2013-01-23 08:23:00,21.0,-8.0,-100.00,ESE,106,3.0,6.0,27,0.00,,,0.00,10.000000,,2013-01-23 15:23:00,
2013-01-23 08:33:00,21.0,-8.0,-100.00,ESE,106,3.0,6.0,27,0.00,,,0.00,10.000000,,2013-01-23 15:33:00,
2013-01-23 08:43:00,21.0,-8.0,-100.00,ESE,106,3.0,6.0,27,0.00,,,0.00,10.000000,,2013-01-23 15:43:00,
2013-01-23 08:53:00,21.0,-8.0,-100.00,ESE,106,3.0,6.0,27,0.00,,,0.00,10.000000,,2013-01-23 15:53:00,
2013-01-23 09:23:00,25.0,-4.0,-100.00,ESE,110,3.0,7.0,27,0.00,,,0.00,62.000000,,2013-01-23 16:23:00,
2013-01-23 09:33:00,25.0,-4.0,-100.00,ESE,110,3.0,7.0,27,0.00,,,0.00,62.000000,,2013-01-23 16:33:00,
2013-01-23 09:42:00,25.0,-4.0,-100.00,ESE,110,3.0,7.0,27,0.00,,,0.00,62.000000,,2013-01-23 16:42:00,
2013-01-23 09:52:00,25.0,-4.0,-100.00,ESE,110,3.0,7.0,27,0.00,,,0.00,62.000000,,2013-01-23 16:52:00,
2013-01-23 10:23:00,39.0,1.0,-100.00,SE,141,3.0,5.0,20,0.00,,,0.00,290.000000,,2013-01-23 17:23:00,
2013-01-23 10:33:00,39.0,1.0,-100.00,SE,141,3.0,5.0,20,0.00,,,0.00,290.000000,,2013-01-23 17:33:00,
2013-01-23 10:42:00,39.0,1.0,-100.00,SE,141,3.0,5.0,20,0.00,,,0.00,290.000000,,2013-01-23 17:42:00,
2013-01-23 10:52:00,39.0,1.0,-100.00,SE,141,3.0,5.0,20,0.00,,,0.00,290.000000,,2013-01-23 17:52:00,
2013-01-23 11:23:00,47.0,-9.0,-100.00,WSW,253,3.0,6.0,9,0.00,,,0.00,420.000000,,2013-01-23 18:23:00,
2013-01-23 11:33:00,47.0,-9.0,-100.00,WSW,253,3.0,6.0,9,0.00,,,0.00,420.000000,,2013-01-23 18:33:00,
2013-01-23 11:43:00,47.0,-9.0,-100.00,WSW,253,3.0,6.0,9,0.00,,,0.00,420.000000,,2013-01-23 18:43:00,
2013-01-23 11:53:00,47.0,-9.0,-100.00,WSW,253,3.0,6.0,9,0.00,,,0.00,420.000000,,2013-01-23 18:53:00,
2013-01-23 12:23:00,54.0,-12.0,-100.00,WNW,287,2.0,6.0,6,0.00,,,0.00,565.000000,,2013-01-23 19:23:00,
2013-01-23 12:33:00,54.0,-12.0,-100.00,WNW,287,2.0,6.0,6,0.00,,,0.00,565.000000,,2013-01-23 19:33:00,
2013-01-23 12:43:00,54.0,-12.0,-100.00,WNW,287,2.0,6.0,6,0.00,,,0.00,565.000000,,2013-01-23 19:43:00,
2013-01-23 12:53:00,54.0,-12.0,-100.00,WNW,287,2.0,6.0,6,0.00,,,0.00,565.000000,,2013-01-23 19:53:00,
2013-01-23 13:23:00,54.0,-12.0,-100.00,West,265,6.0,14.0,6,0.00,,,0.00,587.000000,,2013-01-23 20:23:00,
2013-01-23 13:33:00,54.0,-12.0,-100.00,West,265,6.0,14.0,6,0.00,,,0.00,587.000000,,2013-01-23 20:33:00,
2013-01-23 13:43:00,54.0,-12.0,-100.00,West,265,6.0,14.0,6,0.00,,,0.00,587.000000,,2013-01-23 20:43:00,
2013-01-23 13:53:00,54.0,-12.0,-100.00,West,265,6.0,14.0,6,0.00,,,0.00,587.000000,,2013-01-23 20:53:00,
2013-01-23 14:23:00,51.0,-8.0,-100.00,NW,319,7.0,14.0,8,0.00,,,0.00,488.000000,,2013-01-23 21:23:00,
2013-01-23 14:33:00,51.0,-8.0,-100.00,NW,319,7.0,14.0,8,0.00,,,0.00,488.000000,,2013-01-23 21:33:00,
2013-01-23 14:43:00,51.0,-8.0,-100.00,NW,319,7.0,14.0,8,0.00,,,0.00,488.000000,,2013-01-23 21:43:00,
2013-01-23 14:52:00,51.0,-8.0,-100.00,NW,319,7.0,14.0,8,0.00,,,0.00,488.000000,,2013-01-23 21:52:00,
2013-01-23 15:23:00,50.0,-9.0,-100.00,NW,326,7.0,14.0,8,0.00,,,0.00,430.000000,,2013-01-23 22:23:00,
2013-01-23 15:33:00,50.0,-9.0,-100.00,NW,326,7.0,14.0,8,0.00,,,0.00,430.000000,,2013-01-23 22:33:00,
2013-01-23 15:42:00,50.0,-9.0,-100.00,NW,326,7.0,14.0,8,0.00,,,0.00,430.000000,,2013-01-23 22:42:00,
2013-01-23 15:52:00,50.0,-9.0,-100.00,NW,326,7.0,14.0,8,0.00,,,0.00,430.000000,,2013-01-23 22:52:00,
2013-01-23 16:23:00,46.0,-6.0,-100.00,NNW,347,4.0,14.0,11,0.00,,,0.00,225.000000,,2013-01-23 23:23:00,
2013-01-23 16:33:00,46.0,-6.0,-100.00,NNW,347,4.0,14.0,11,0.00,,,0.00,225.000000,,2013-01-23 23:33:00,
2013-01-23 16:43:00,46.0,-6.0,-100.00,NNW,347,4.0,14.0,11,0.00,,,0.00,225.000000,,2013-01-23 23:43:00,
2013-01-23 16:53:00,46.0,-6.0,-100.00,NNW,347,4.0,14.0,11,0.00,,,0.00,225.000000,,2013-01-23 23:53:00,
2013-01-23 17:22:00,41.0,3.0,-100.00,NNE,33,3.0,8.0,20,0.00,,,0.00,54.000000,,2013-01-24 00:22:00,
2013-01-23 17:32:00,41.0,3.0,-100.00,NNE,33,3.0,8.0,20,0.00,,,0.00,54.000000,,2013-01-24 00:32:00,
2013-01-23 17:42:00,41.0,3.0,-100.00,NNE,33,3.0,8.0,20,0.00,,,0.00,54.000000,,2013-01-24 00:42:00,
2013-01-23 17:53:00,41.0,3.0,-100.00,NNE,33,3.0,8.0,20,0.00,,,0.00,54.000000,,2013-01-24 00:53:00,
2013-01-23 18:23:00,34.0,11.0,-100.00,East,82,4.0,6.0,38,0.00,,,0.00,2.000000,,2013-01-24 01:23:00,
2013-01-23 18:33:00,34.0,11.0,-100.00,East,82,4.0,6.0,38,0.00,,,0.00,2.000000,,2013-01-24 01:33:00,
2013-01-23 18:42:00,34.0,11.0,-100.00,East,82,4.0,6.0,38,0.00,,,0.00,2.000000,,2013-01-24 01:42:00,
2013-01-23 18:52:00,34.0,11.0,-100.00,East,82,4.0,6.0,38,0.00,,,0.00,2.000000,,2013-01-24 01:52:00,
2013-01-23 19:22:00,32.0,11.0,-100.00,ENE,78,3.0,6.0,41,0.00,,,0.00,0.000000,,2013-01-24 02:22:00,
2013-01-23 19:33:00,32.0,11.0,-100.00,ENE,78,3.0,6.0,41,0.00,,,0.00,0.000000,,2013-01-24 02:33:00,
2013-01-23 19:42:00,32.0,11.0,-100.00,ENE,78,3.0,6.0,41,0.00,,,0.00,0.000000,,2013-01-24 02:42:00,
2013-01-23 19:52:00,32.0,11.0,-100.00,ENE,78,3.0,6.0,41,0.00,,,0.00,0.000000,,2013-01-24 02:52:00,
2013-01-23 20:22:00,30.0,10.0,-100.00,East,83,3.0,7.0,43,0.00,,,0.00,0.000000,,2013-01-24 03:22:00,
2013-01-23 20:33:00,30.0,10.0,-100.00,East,83,3.0,7.0,43,0.00,,,0.00,0.000000,,2013-01-24 03:33:00,
2013-01-23 20:43:00,30.0,10.0,-100.00,East,83,3.0,7.0,43,0.00,,,0.00,0.000000,,2013-01-24 03:43:00,
2013-01-23 20:52:00,30.0,10.0,-100.00,East,83,3.0,7.0,43,0.00,,,0.00,0.000000,,2013-01-24 03:52:00,
2013-01-23 21:22:00,30.0,7.0,-100.00,SSE,161,1.0,5.0,37,0.00,,,0.00,0.000000,,2013-01-24 04:22:00,
2013-01-23 21:32:00,30.0,7.0,-100.00,SSE,161,1.0,5.0,37,0.00,,,0.00,0.000000,,2013-01-24 04:32:00,
2013-01-23 21:42:00,30.0,7.0,-100.00,SSE,161,1.0,5.0,37,0.00,,,0.00,0.000000,,2013-01-24 04:42:00,
2013-01-23 21:52:00,30.0,7.0,-100.00,SSE,161,1.0,5.0,37,0.00,,,0.00,0.000000,,2013-01-24 04:52:00,
2013-01-23 22:22:00,29.0,7.0,-100.00,East,84,3.0,7.0,38,0.00,,,0.00,0.000000,,2013-01-24 05:22:00,
2013-01-23 22:33:00,29.0,7.0,-100.00,East,84,3.0,7.0,38,0.00,,,0.00,0.000000,,2013-01-24 05:33:00,
2013-01-23 22:42:00,29.0,7.0,-100.00,East,84,3.0,7.0,38,0.00,,,0.00,0.000000,,2013-01-24 05:42:00,
2013-01-23 22:52:00,29.0,7.0,-100.00,East,84,3.0,7.0,38,0.00,,,0.00,0.000000,,2013-01-24 05:52:00,
2013-01-23 23:22:00,29.0,8.0,-100.00,East,90,2.0,4.0,40,0.00,,,0.00,0.000000,,2013-01-24 06:22:00,
2013-01-23 23:32:00,29.0,8.0,-100.00,East,90,2.0,4.0,40,0.00,,,0.00,0.000000,,2013-01-24 06:32:00,
2013-01-23 23:42:00,29.0,8.0,-100.00,East,90,2.0,4.0,40,0.00,,,0.00,0.000000,,2013-01-24 06:42:00,
2013-01-23 23:52:00,29.0,8.0,-100.00,East,90,2.0,4.0,40,0.00,,,0.00,0.000000,,2013-01-24 06:52:00,